This is the latest recevied weather packets stored in our database for station/object SV6AYW-10. If no packets are shown the sender has not sent any weather packets the latest 10 day(s).
| Time | Temp. | Humidity | Pressure | Rain* | Wind** | Luminosity | Snow |
|---|---|---|---|---|---|---|---|
| 1777810642 | 21.11° C | 40% | 1015.2 hPa | - | - | - | - |
| 1777809742 | 20.56° C | 40% | 1015.4 hPa | - | - | - | - |
| 1777808842 | 20.56° C | 41% | 1015.3 hPa | - | - | - | - |
| 1777804341 | 20° C | 45% | 1015.6 hPa | - | - | - | - |
| 1777803441 | 20° C | 46% | 1015.7 hPa | - | - | - | - |
| 1777802541 | 19.44° C | 47% | 1015.9 hPa | - | - | - | - |
| 1777800740 | 19.44° C | 47% | 1016.3 hPa | - | - | - | - |
| 1777799840 | 18.89° C | 46% | 1016.7 hPa | - | - | - | - |
| 1777798940 | 18.89° C | 46% | 1016.7 hPa | - | - | - | - |
| 1777798040 | 19.44° C | 47% | 1016.7 hPa | - | - | - | - |
| 1777797140 | 19.44° C | 47% | 1016.6 hPa | - | - | - | - |
| 1777796237 | 19.44° C | 48% | 1016.6 hPa | - | - | - | - |
| 1777795337 | 20.56° C | 51% | 1016.4 hPa | - | - | - | - |
| 1777794437 | 20° C | 50% | 1016.4 hPa | - | - | - | - |
| 1777793537 | 20° C | 52% | 1016.5 hPa | - | - | - | - |
| 1777792637 | 20° C | 52% | 1016.3 hPa | - | - | - | - |
| 1777791737 | 20° C | 52% | 1016 hPa | - | - | - | - |
| 1777790837 | 20° C | 52% | 1016.1 hPa | - | - | - | - |
| 1777789936 | 20° C | 52% | 1016.2 hPa | - | - | - | - |
| 1777789036 | 19.44° C | 53% | 1016.2 hPa | - | - | - | - |
| 1777788136 | 20° C | 51% | 1016.2 hPa | - | - | - | - |
| 1777787236 | 18.89° C | 47% | 1016.2 hPa | - | - | - | - |
| 1777786336 | 18.89° C | 47% | 1016.3 hPa | - | - | - | - |
| 1777785436 | 19.44° C | 47% | 1016.2 hPa | - | - | - | - |
| 1777784535 | 18.89° C | 47% | 1016.1 hPa | - | - | - | - |
* Rain since midnight (hover to see other rain measurements)
** Current wind speed in m/s (hover to see current wind gust speed)